Location: Newark
(30.0333°N, 31.2167°E)
Time: 05:37:01
(UTC+00:00)

Tiros 1 despin weight - Pass Details

Date: 29 January 2020
Orbit: 594 x 642 km, 48.2° (Epoch: 17 February)

Event Time Altitude Azimuth Distance (km) Brightness Sun altitude
Rises 12:32:23 0° 323° (NW) 2,898 ? 30.7°
Reaches altitude 10° 12:35:24 10° 344° (NNW) 2,000 ? 30.3°
Maximum altitude 12:38:28 17° 26° (NNE) 1,582 ? 29.9°
Drops below altitude 10° 12:41:33 10° 67° (ENE) 2,014 ? 29.4°
Sets 12:44:36 0° 88° (E) 2,927 ? 29.0°
